Time,TemperatureF,DewpointF,PressureIn,WindDirection,WindDirectionDegrees,WindSpeedMPH,WindSpeedGustMPH,Humidity,HourlyPrecipIn,Conditions,Clouds,dailyrainin,SoftwareType,DateUTC
2013-08-08 00:00:00,64.5,56.0,29.99,SE,143,0.0,0.0,74,0.00,,---,0.00,VWS V14.01,2013-08-08 07:00:00,
2013-08-08 00:01:00,64.5,56.0,29.99,SE,143,0.0,0.0,74,0.00,,---,0.00,VWS V14.01,2013-08-08 07:01:00,
2013-08-08 00:05:00,64.7,56.6,29.99,SE,143,0.0,0.0,75,0.00,,---,0.00,VWS V14.01,2013-08-08 07:05:00,
2013-08-08 00:06:00,64.7,56.6,29.99,SE,143,0.0,0.0,75,0.00,,---,0.00,VWS V14.01,2013-08-08 07:06:00,
2013-08-08 00:10:00,64.2,56.5,30.00,SE,143,0.0,0.0,76,0.00,,---,0.00,VWS V14.01,2013-08-08 07:10:00,
2013-08-08 00:11:00,64.2,56.5,30.00,SE,143,0.0,0.0,76,0.00,,---,0.00,VWS V14.01,2013-08-08 07:11:00,
2013-08-08 00:15:00,63.8,56.5,30.00,SE,143,0.0,0.0,77,0.00,,---,0.00,VWS V14.01,2013-08-08 07:15:00,
2013-08-08 00:16:00,63.8,56.5,30.00,SE,143,0.0,0.0,77,0.00,,---,0.00,VWS V14.01,2013-08-08 07:16:00,
2013-08-08 00:20:00,63.5,56.5,30.00,SE,143,0.0,0.0,78,0.00,,---,0.00,VWS V14.01,2013-08-08 07:20:00,
2013-08-08 00:21:00,63.5,56.5,30.00,SE,143,0.0,0.0,78,0.00,,---,0.00,VWS V14.01,2013-08-08 07:21:00,
2013-08-08 00:25:00,63.2,56.2,30.00,SE,143,0.0,0.0,78,0.00,,---,0.00,VWS V14.01,2013-08-08 07:25:00,
2013-08-08 00:26:00,63.2,56.2,30.00,SE,143,0.0,0.0,78,0.00,,---,0.00,VWS V14.01,2013-08-08 07:26:00,
2013-08-08 00:30:00,63.0,56.4,30.00,SE,143,0.0,0.0,79,0.00,,---,0.00,VWS V14.01,2013-08-08 07:30:00,
2013-08-08 00:31:00,62.9,56.3,30.00,SE,143,0.0,0.0,79,0.00,,---,0.00,VWS V14.01,2013-08-08 07:31:00,
2013-08-08 00:35:00,62.9,56.3,29.99,SE,143,0.0,1.0,79,0.00,,---,0.00,VWS V14.01,2013-08-08 07:35:00,
2013-08-08 00:36:00,62.9,56.3,29.99,SE,143,0.0,1.0,79,0.00,,---,0.00,VWS V14.01,2013-08-08 07:36:00,
2013-08-08 00:40:00,62.7,56.1,30.00,SE,143,0.0,0.0,79,0.00,,---,0.00,VWS V14.01,2013-08-08 07:40:00,
2013-08-08 00:41:00,62.7,56.1,30.00,SE,143,0.0,0.0,79,0.00,,---,0.00,VWS V14.01,2013-08-08 07:41:00,
2013-08-08 00:45:00,62.4,55.8,30.00,SE,143,0.0,0.0,79,0.00,,---,0.00,VWS V14.01,2013-08-08 07:45:00,
2013-08-08 00:46:00,62.4,55.8,30.00,SE,143,0.0,0.0,79,0.00,,---,0.00,VWS V14.01,2013-08-08 07:46:00,
2013-08-08 00:50:00,62.3,56.1,30.00,SE,143,0.0,0.0,80,0.00,,---,0.00,VWS V14.01,2013-08-08 07:50:00,
2013-08-08 00:51:00,62.3,56.1,30.00,SE,143,0.0,0.0,80,0.00,,---,0.00,VWS V14.01,2013-08-08 07:51:00,
2013-08-08 00:55:00,62.2,56.0,30.00,SE,143,0.0,0.0,80,0.00,,---,0.00,VWS V14.01,2013-08-08 07:55:00,
2013-08-08 00:56:00,62.2,56.0,30.00,SE,143,0.0,0.0,80,0.00,,---,0.00,VWS V14.01,2013-08-08 07:56:00,
2013-08-08 01:00:00,62.1,55.9,30.00,SE,143,0.0,0.0,80,0.00,,---,0.00,VWS V14.01,2013-08-08 08:00:00,
2013-08-08 01:01:00,62.1,55.9,30.00,SE,143,0.0,0.0,80,0.00,,---,0.00,VWS V14.01,2013-08-08 08:01:00,
2013-08-08 01:05:00,62.0,56.1,30.00,WSW,251,0.0,1.0,81,0.00,,---,0.00,VWS V14.01,2013-08-08 08:05:00,
2013-08-08 01:06:00,62.0,56.1,30.00,WSW,251,0.0,1.0,81,0.00,,---,0.00,VWS V14.01,2013-08-08 08:06:00,
2013-08-08 01:10:00,61.8,55.9,30.00,SSW,212,0.0,0.0,81,0.00,,---,0.00,VWS V14.01,2013-08-08 08:10:00,
2013-08-08 01:11:00,61.8,55.9,30.00,SSW,212,0.0,0.0,81,0.00,,---,0.00,VWS V14.01,2013-08-08 08:11:00,
2013-08-08 01:15:00,61.6,56.1,30.01,SSE,155,0.0,2.0,82,0.00,,---,0.00,VWS V14.01,2013-08-08 08:15:00,
2013-08-08 01:16:00,61.6,55.7,30.01,SSE,155,1.0,2.0,81,0.00,,---,0.00,VWS V14.01,2013-08-08 08:16:00,
2013-08-08 01:20:00,61.4,55.9,30.01,SSE,159,0.0,3.0,82,0.00,,---,0.00,VWS V14.01,2013-08-08 08:20:00,
2013-08-08 01:21:00,61.4,55.9,30.01,SSE,163,0.0,3.0,82,0.00,,---,0.00,VWS V14.01,2013-08-08 08:21:00,
2013-08-08 01:25:00,61.1,55.6,30.01,SE,139,0.0,1.0,82,0.00,,---,0.00,VWS V14.01,2013-08-08 08:25:00,
2013-08-08 01:26:00,61.1,55.6,30.01,SSE,148,1.0,1.0,82,0.00,,---,0.00,VWS V14.01,2013-08-08 08:26:00,
2013-08-08 01:30:00,60.9,55.4,30.01,SSE,150,1.0,1.0,82,0.00,,---,0.00,VWS V14.01,2013-08-08 08:30:00,
2013-08-08 01:31:00,60.9,55.4,30.01,SE,129,1.0,1.0,82,0.00,,---,0.00,VWS V14.01,2013-08-08 08:31:00,
2013-08-08 01:35:00,60.6,55.1,30.01,SE,136,1.0,2.0,82,0.00,,---,0.00,VWS V14.01,2013-08-08 08:35:00,
2013-08-08 01:36:00,60.6,55.1,30.01,SSE,154,0.0,2.0,82,0.00,,---,0.00,VWS V14.01,2013-08-08 08:36:00,
2013-08-08 01:40:00,60.3,55.1,30.01,SSE,160,1.0,2.0,83,0.00,,---,0.00,VWS V14.01,2013-08-08 08:40:00,
2013-08-08 01:41:00,60.4,55.2,30.01,SSE,160,0.0,2.0,83,0.00,,---,0.00,VWS V14.01,2013-08-08 08:41:00,
2013-08-08 01:45:00,60.1,54.9,30.01,WSW,243,2.0,4.0,83,0.00,,---,0.00,VWS V14.01,2013-08-08 08:45:00,
2013-08-08 01:46:00,60.1,54.9,30.01,SSW,205,0.0,1.0,83,0.00,,---,0.00,VWS V14.01,2013-08-08 08:46:00,
2013-08-08 01:50:00,59.9,54.7,30.00,SSE,159,1.0,2.0,83,0.00,,---,0.00,VWS V14.01,2013-08-08 08:50:00,
2013-08-08 01:51:00,59.9,54.7,30.00,SSE,158,1.0,2.0,83,0.00,,---,0.00,VWS V14.01,2013-08-08 08:51:00,
2013-08-08 01:55:00,59.6,54.8,30.01,WSW,252,0.0,3.0,84,0.00,,---,0.00,VWS V14.01,2013-08-08 08:55:00,
2013-08-08 01:56:00,59.7,54.9,30.01,WSW,252,0.0,3.0,84,0.00,,---,0.00,VWS V14.01,2013-08-08 08:56:00,
2013-08-08 02:00:00,59.5,54.7,30.01,SW,223,1.0,2.0,84,0.00,,---,0.00,VWS V14.01,2013-08-08 09:00:00,
2013-08-08 02:01:00,59.5,54.7,30.01,West,260,1.0,2.0,84,0.00,,---,0.00,VWS V14.01,2013-08-08 09:01:00,
2013-08-08 02:05:00,59.3,54.5,30.01,WSW,249,3.0,4.0,84,0.00,,---,0.00,VWS V14.01,2013-08-08 09:05:00,
2013-08-08 02:06:00,59.3,54.5,30.01,West,271,2.0,3.0,84,0.00,,---,0.00,VWS V14.01,2013-08-08 09:06:00,
2013-08-08 02:10:00,59.1,54.3,30.01,WSW,243,1.0,4.0,84,0.00,,---,0.00,VWS V14.01,2013-08-08 09:10:00,
2013-08-08 02:11:00,59.1,54.3,30.01,WSW,243,1.0,4.0,84,0.00,,---,0.00,VWS V14.01,2013-08-08 09:11:00,
2013-08-08 02:15:00,59.1,54.3,30.01,SSW,212,0.0,4.0,84,0.00,,---,0.00,VWS V14.01,2013-08-08 09:15:00,
2013-08-08 02:16:00,59.1,54.3,30.01,SSW,212,0.0,4.0,84,0.00,,---,0.00,VWS V14.01,2013-08-08 09:16:00,
2013-08-08 02:20:00,59.0,54.2,30.01,SSE,149,0.0,1.0,84,0.00,,---,0.00,VWS V14.01,2013-08-08 09:20:00,
2013-08-08 02:21:00,59.0,54.2,30.01,SSE,149,0.0,1.0,84,0.00,,---,0.00,VWS V14.01,2013-08-08 09:21:00,
2013-08-08 02:25:00,58.9,54.1,30.01,WSW,258,0.0,2.0,84,0.00,,---,0.00,VWS V14.01,2013-08-08 09:25:00,
2013-08-08 02:26:00,58.9,54.1,30.01,WSW,258,0.0,2.0,84,0.00,,---,0.00,VWS V14.01,2013-08-08 09:26:00,
2013-08-08 02:30:00,58.8,54.0,30.01,WSW,251,0.0,2.0,84,0.00,,---,0.00,VWS V14.01,2013-08-08 09:30:00,
2013-08-08 02:31:00,58.8,54.0,30.01,WSW,251,0.0,2.0,84,0.00,,---,0.00,VWS V14.01,2013-08-08 09:31:00,
2013-08-08 02:35:00,58.7,54.2,30.01,SW,221,0.0,3.0,85,0.00,,---,0.00,VWS V14.01,2013-08-08 09:35:00,
2013-08-08 02:36:00,58.7,54.2,30.01,SW,221,0.0,3.0,85,0.00,,---,0.00,VWS V14.01,2013-08-08 09:36:00,
2013-08-08 02:40:00,58.7,54.2,30.02,SSW,205,0.0,2.0,85,0.00,,---,0.00,VWS V14.01,2013-08-08 09:40:00,
2013-08-08 02:41:00,58.7,54.2,30.02,SSW,205,0.0,2.0,85,0.00,,---,0.00,VWS V14.01,2013-08-08 09:41:00,
2013-08-08 02:45:00,58.6,54.1,30.02,SSE,158,1.0,1.0,85,0.00,,---,0.00,VWS V14.01,2013-08-08 09:45:00,
2013-08-08 02:46:00,58.6,54.1,30.02,South,171,1.0,1.0,85,0.00,,---,0.00,VWS V14.01,2013-08-08 09:46:00,
2013-08-08 02:50:00,58.4,53.9,30.01,SSE,153,0.0,1.0,85,0.00,,---,0.00,VWS V14.01,2013-08-08 09:50:00,
2013-08-08 02:51:00,58.4,53.9,30.01,SSE,153,0.0,1.0,85,0.00,,---,0.00,VWS V14.01,2013-08-08 09:51:00,
2013-08-08 02:55:00,58.3,53.8,30.01,SSE,153,0.0,0.0,85,0.00,,---,0.00,VWS V14.01,2013-08-08 09:55:00,
2013-08-08 02:56:00,58.3,53.8,30.01,SSE,153,0.0,0.0,85,0.00,,---,0.00,VWS V14.01,2013-08-08 09:56:00,
2013-08-08 03:00:00,58.2,53.7,30.01,SW,224,0.0,3.0,85,0.00,,---,0.00,VWS V14.01,2013-08-08 10:00:00,
2013-08-08 03:01:00,58.2,53.7,30.01,SW,224,0.0,3.0,85,0.00,,---,0.00,VWS V14.01,2013-08-08 10:01:00,
2013-08-08 03:05:00,58.2,53.7,30.01,SW,224,2.0,3.0,85,0.00,,---,0.00,VWS V14.01,2013-08-08 10:05:00,
2013-08-08 03:06:00,58.2,53.7,30.01,WNW,295,2.0,3.0,85,0.00,,---,0.00,VWS V14.01,2013-08-08 10:06:00,
2013-08-08 03:10:00,58.2,53.7,30.01,SSW,201,0.0,2.0,85,0.00,,---,0.00,VWS V14.01,2013-08-08 10:10:00,
2013-08-08 03:11:00,58.2,53.7,30.01,SSW,201,0.0,2.0,85,0.00,,---,0.00,VWS V14.01,2013-08-08 10:11:00,
2013-08-08 03:15:00,58.2,53.7,30.01,SSW,201,0.0,0.0,85,0.00,,---,0.00,VWS V14.01,2013-08-08 10:15:00,
2013-08-08 03:16:00,58.2,53.7,30.01,SSW,201,0.0,0.0,85,0.00,,---,0.00,VWS V14.01,2013-08-08 10:16:00,
2013-08-08 03:20:00,58.2,53.7,30.01,West,265,0.0,1.0,85,0.00,,---,0.00,VWS V14.01,2013-08-08 10:20:00,
2013-08-08 03:21:00,58.2,53.7,30.01,West,265,0.0,1.0,85,0.00,,---,0.00,VWS V14.01,2013-08-08 10:21:00,
2013-08-08 03:25:00,58.1,53.6,30.01,West,265,0.0,1.0,85,0.00,,---,0.00,VWS V14.01,2013-08-08 10:25:00,
2013-08-08 03:26:00,58.1,53.6,30.01,West,265,0.0,1.0,85,0.00,,---,0.00,VWS V14.01,2013-08-08 10:26:00,
2013-08-08 03:30:00,58.2,53.7,30.01,SSE,156,0.0,2.0,85,0.00,,---,0.00,VWS V14.01,2013-08-08 10:30:00,
2013-08-08 03:31:00,58.2,53.7,30.01,SSE,156,0.0,2.0,85,0.00,,---,0.00,VWS V14.01,2013-08-08 10:31:00,
2013-08-08 03:35:00,58.2,53.7,30.02,SSE,156,0.0,1.0,85,0.00,,---,0.00,VWS V14.01,2013-08-08 10:35:00,
2013-08-08 03:36:00,58.2,53.7,30.02,SSE,156,0.0,1.0,85,0.00,,---,0.00,VWS V14.01,2013-08-08 10:36:00,
2013-08-08 03:40:00,58.2,53.7,30.01,South,173,0.0,1.0,85,0.00,,---,0.00,VWS V14.01,2013-08-08 10:40:00,
2013-08-08 03:41:00,58.2,53.7,30.01,South,173,0.0,1.0,85,0.00,,---,0.00,VWS V14.01,2013-08-08 10:41:00,
2013-08-08 03:45:00,58.2,53.7,30.01,SW,217,0.0,0.0,85,0.00,,---,0.00,VWS V14.01,2013-08-08 10:45:00,
2013-08-08 03:46:00,58.2,53.7,30.01,South,174,0.0,0.0,85,0.00,,---,0.00,VWS V14.01,2013-08-08 10:46:00,
2013-08-08 03:50:00,58.1,53.6,30.01,SW,229,1.0,1.0,85,0.00,,---,0.00,VWS V14.01,2013-08-08 10:50:00,
2013-08-08 03:51:00,58.1,53.6,30.01,SSW,207,0.0,1.0,85,0.00,,---,0.00,VWS V14.01,2013-08-08 10:51:00,
2013-08-08 03:55:00,58.0,53.5,30.01,SSW,205,0.0,1.0,85,0.00,,---,0.00,VWS V14.01,2013-08-08 10:55:00,
2013-08-08 03:56:00,58.0,53.5,30.01,SSW,205,0.0,1.0,85,0.00,,---,0.00,VWS V14.01,2013-08-08 10:56:00,
2013-08-08 04:00:00,58.0,53.5,30.01,SSE,148,0.0,1.0,85,0.00,,---,0.00,VWS V14.01,2013-08-08 11:00:00,
2013-08-08 04:01:00,58.0,53.5,30.01,SSE,148,0.0,1.0,85,0.00,,---,0.00,VWS V14.01,2013-08-08 11:01:00,
2013-08-08 04:05:00,57.9,53.4,30.01,SSE,148,0.0,0.0,85,0.00,,---,0.00,VWS V14.01,2013-08-08 11:05:00,
2013-08-08 04:06:00,57.9,53.4,30.01,SSE,148,0.0,0.0,85,0.00,,---,0.00,VWS V14.01,2013-08-08 11:06:00,
2013-08-08 04:10:00,57.8,53.3,30.01,SW,221,0.0,4.0,85,0.00,,---,0.00,VWS V14.01,2013-08-08 11:10:00,
2013-08-08 04:11:00,57.8,53.3,30.01,SW,221,0.0,4.0,85,0.00,,---,0.00,VWS V14.01,2013-08-08 11:11:00,
2013-08-08 04:15:00,57.9,53.4,30.01,West,271,0.0,1.0,85,0.00,,---,0.00,VWS V14.01,2013-08-08 11:15:00,
2013-08-08 04:16:00,57.8,53.3,30.01,West,269,0.0,1.0,85,0.00,,---,0.00,VWS V14.01,2013-08-08 11:16:00,
2013-08-08 04:20:00,57.8,53.3,30.01,SE,138,0.0,1.0,85,0.00,,---,0.00,VWS V14.01,2013-08-08 11:20:00,
2013-08-08 04:21:00,57.8,53.3,30.01,SE,138,0.0,1.0,85,0.00,,---,0.00,VWS V14.01,2013-08-08 11:21:00,
2013-08-08 04:25:00,57.8,53.3,30.01,SW,233,0.0,4.0,85,0.00,,---,0.00,VWS V14.01,2013-08-08 11:25:00,
2013-08-08 04:26:00,57.7,53.2,30.01,SW,233,0.0,4.0,85,0.00,,---,0.00,VWS V14.01,2013-08-08 11:26:00,
2013-08-08 04:30:00,57.6,53.1,30.01,West,261,0.0,2.0,85,0.00,,---,0.00,VWS V14.01,2013-08-08 11:30:00,
2013-08-08 04:31:00,57.6,53.1,30.01,West,262,0.0,2.0,85,0.00,,---,0.00,VWS V14.01,2013-08-08 11:31:00,
2013-08-08 04:35:00,57.6,53.1,30.01,SE,144,0.0,2.0,85,0.00,,---,0.00,VWS V14.01,2013-08-08 11:35:00,
2013-08-08 04:36:00,57.6,53.1,30.01,WSW,245,0.0,2.0,85,0.00,,---,0.00,VWS V14.01,2013-08-08 11:36:00,
2013-08-08 04:40:00,57.5,53.0,30.01,SSE,167,0.0,1.0,85,0.00,,---,0.00,VWS V14.01,2013-08-08 11:40:00,
2013-08-08 04:41:00,57.5,53.0,30.01,SSE,167,0.0,1.0,85,0.00,,---,0.00,VWS V14.01,2013-08-08 11:41:00,
2013-08-08 04:45:00,57.4,52.9,30.01,South,169,0.0,0.0,85,0.00,,---,0.00,VWS V14.01,2013-08-08 11:45:00,
2013-08-08 04:46:00,57.4,52.9,30.01,South,169,0.0,0.0,85,0.00,,---,0.00,VWS V14.01,2013-08-08 11:46:00,
2013-08-08 04:50:00,57.3,52.8,30.01,SW,236,0.0,2.0,85,0.00,,---,0.00,VWS V14.01,2013-08-08 11:50:00,
2013-08-08 04:51:00,57.4,52.9,30.01,SW,236,0.0,2.0,85,0.00,,---,0.00,VWS V14.01,2013-08-08 11:51:00,
2013-08-08 04:55:00,57.3,52.8,30.01,SW,236,0.0,0.0,85,0.00,,---,0.00,VWS V14.01,2013-08-08 11:55:00,
2013-08-08 04:56:00,57.3,52.8,30.01,SW,236,0.0,0.0,85,0.00,,---,0.00,VWS V14.01,2013-08-08 11:56:00,
2013-08-08 05:00:00,57.2,52.7,30.01,WSW,244,0.0,2.0,85,0.00,,---,0.00,VWS V14.01,2013-08-08 12:00:00,
2013-08-08 05:01:00,57.1,52.6,30.01,WSW,244,0.0,2.0,85,0.00,,---,0.00,VWS V14.01,2013-08-08 12:01:00,
2013-08-08 05:05:00,57.1,52.3,30.01,WSW,244,0.0,1.0,84,0.00,,---,0.00,VWS V14.01,2013-08-08 12:05:00,
2013-08-08 05:06:00,57.1,52.3,30.01,WSW,244,0.0,1.0,84,0.00,,---,0.00,VWS V14.01,2013-08-08 12:06:00,
2013-08-08 05:10:00,57.0,52.2,30.01,WSW,244,0.0,1.0,84,0.00,,---,0.00,VWS V14.01,2013-08-08 12:10:00,
2013-08-08 05:11:00,57.0,52.2,30.01,WSW,245,0.0,1.0,84,0.00,,---,0.00,VWS V14.01,2013-08-08 12:11:00,
2013-08-08 05:15:00,57.0,52.2,30.01,SE,133,0.0,1.0,84,0.00,,---,0.00,VWS V14.01,2013-08-08 12:15:00,
2013-08-08 05:16:00,56.9,52.1,30.01,SE,129,0.0,1.0,84,0.00,,---,0.00,VWS V14.01,2013-08-08 12:16:00,
2013-08-08 05:20:00,56.9,52.1,30.02,SE,133,0.0,0.0,84,0.00,,---,0.00,VWS V14.01,2013-08-08 12:20:00,
2013-08-08 05:21:00,56.9,52.1,30.02,SE,134,0.0,0.0,84,0.00,,---,0.00,VWS V14.01,2013-08-08 12:21:00,
2013-08-08 05:25:00,56.9,52.1,30.02,SE,140,0.0,1.0,84,0.00,,---,0.00,VWS V14.01,2013-08-08 12:25:00,
2013-08-08 05:26:00,56.9,52.1,30.02,SE,140,1.0,1.0,84,0.00,,---,0.00,VWS V14.01,2013-08-08 12:26:00,
2013-08-08 05:30:00,56.8,52.0,30.02,SW,218,1.0,1.0,84,0.00,,---,0.00,VWS V14.01,2013-08-08 12:30:00,
2013-08-08 05:31:00,56.8,52.0,30.02,SW,215,0.0,1.0,84,0.00,,---,0.00,VWS V14.01,2013-08-08 12:31:00,
2013-08-08 05:35:00,56.8,52.0,30.02,South,187,0.0,2.0,84,0.00,,---,0.00,VWS V14.01,2013-08-08 12:35:00,
2013-08-08 05:36:00,56.8,52.0,30.02,South,187,0.0,2.0,84,0.00,,---,0.00,VWS V14.01,2013-08-08 12:36:00,
2013-08-08 05:40:00,56.8,52.0,30.02,SSW,204,0.0,1.0,84,0.00,,---,0.00,VWS V14.01,2013-08-08 12:40:00,
2013-08-08 05:41:00,56.8,52.0,30.02,SSW,204,0.0,1.0,84,0.00,,---,0.00,VWS V14.01,2013-08-08 12:41:00,
2013-08-08 05:45:00,56.7,51.6,30.02,SW,233,0.0,1.0,83,0.00,,---,0.00,VWS V14.01,2013-08-08 12:45:00,
2013-08-08 05:46:00,56.7,51.6,30.02,SW,233,0.0,1.0,83,0.00,,---,0.00,VWS V14.01,2013-08-08 12:46:00,
2013-08-08 05:50:00,56.7,51.6,30.03,WSW,238,0.0,1.0,83,0.00,,---,0.00,VWS V14.01,2013-08-08 12:50:00,
2013-08-08 05:51:00,56.7,51.6,30.03,WSW,238,0.0,1.0,83,0.00,,---,0.00,VWS V14.01,2013-08-08 12:51:00,
2013-08-08 05:55:00,56.8,51.7,30.03,SW,228,0.0,1.0,83,0.00,,---,0.00,VWS V14.01,2013-08-08 12:55:00,
2013-08-08 05:56:00,56.8,51.7,30.03,SW,228,0.0,1.0,83,0.00,,---,0.00,VWS V14.01,2013-08-08 12:56:00,
2013-08-08 06:00:00,56.9,51.8,30.03,WSW,257,1.0,2.0,83,0.00,,---,0.00,VWS V14.01,2013-08-08 13:00:00,
2013-08-08 06:01:00,56.8,51.7,30.03,West,264,0.0,2.0,83,0.00,,---,0.00,VWS V14.01,2013-08-08 13:01:00,
2013-08-08 06:05:00,57.0,51.9,30.03,WSW,241,0.0,1.0,83,0.00,,---,0.00,VWS V14.01,2013-08-08 13:05:00,
2013-08-08 06:06:00,57.0,51.9,30.03,WSW,242,0.0,1.0,83,0.00,,---,0.00,VWS V14.01,2013-08-08 13:06:00,
2013-08-08 06:10:00,57.0,51.9,30.03,WSW,243,0.0,2.0,83,0.00,,---,0.00,VWS V14.01,2013-08-08 13:10:00,
2013-08-08 06:11:00,57.0,51.9,30.03,WSW,243,0.0,2.0,83,0.00,,---,0.00,VWS V14.01,2013-08-08 13:11:00,
2013-08-08 06:15:00,56.9,51.8,30.03,West,259,0.0,3.0,83,0.00,,---,0.00,VWS V14.01,2013-08-08 13:15:00,
2013-08-08 06:16:00,56.9,51.8,30.03,West,259,0.0,3.0,83,0.00,,---,0.00,VWS V14.01,2013-08-08 13:16:00,
2013-08-08 06:20:00,56.9,51.8,30.03,WSW,257,1.0,2.0,83,0.00,,---,0.00,VWS V14.01,2013-08-08 13:20:00,
2013-08-08 06:21:00,56.9,51.8,30.03,WSW,252,2.0,2.0,83,0.00,,---,0.00,VWS V14.01,2013-08-08 13:21:00,
2013-08-08 06:25:00,57.0,51.9,30.03,WSW,256,0.0,1.0,83,0.00,,---,0.00,VWS V14.01,2013-08-08 13:25:00,
2013-08-08 06:26:00,57.0,51.9,30.03,WSW,257,0.0,1.0,83,0.00,,---,0.00,VWS V14.01,2013-08-08 13:26:00,
2013-08-08 06:30:00,57.1,52.0,30.03,WSW,258,1.0,1.0,83,0.00,,---,0.00,VWS V14.01,2013-08-08 13:30:00,
2013-08-08 06:31:00,57.1,52.0,30.03,WSW,252,1.0,1.0,83,0.00,,---,0.00,VWS V14.01,2013-08-08 13:31:00,
2013-08-08 06:35:00,57.1,52.0,30.03,WNW,297,0.0,2.0,83,0.00,,---,0.00,VWS V14.01,2013-08-08 13:35:00,
2013-08-08 06:36:00,57.1,52.0,30.03,WNW,297,0.0,2.0,83,0.00,,---,0.00,VWS V14.01,2013-08-08 13:36:00,
2013-08-08 06:40:00,57.2,52.1,30.03,WSW,242,0.0,3.0,83,0.00,,---,0.00,VWS V14.01,2013-08-08 13:40:00,
2013-08-08 06:41:00,57.2,52.1,30.03,WSW,242,1.0,3.0,83,0.00,,---,0.00,VWS V14.01,2013-08-08 13:41:00,
2013-08-08 06:45:00,57.3,52.2,30.03,WSW,239,0.0,3.0,83,0.00,,---,0.00,VWS V14.01,2013-08-08 13:45:00,
2013-08-08 06:46:00,57.3,52.2,30.03,WSW,240,0.0,3.0,83,0.00,,---,0.00,VWS V14.01,2013-08-08 13:46:00,
2013-08-08 06:50:00,57.4,52.3,30.03,WNW,295,1.0,3.0,83,0.00,,---,0.00,VWS V14.01,2013-08-08 13:50:00,
2013-08-08 06:51:00,57.4,52.3,30.03,WNW,300,1.0,3.0,83,0.00,,---,0.00,VWS V14.01,2013-08-08 13:51:00,
2013-08-08 06:55:00,57.4,52.3,30.03,WSW,239,0.0,1.0,83,0.00,,---,0.00,VWS V14.01,2013-08-08 13:55:00,
2013-08-08 06:56:00,57.4,52.3,30.03,WSW,239,0.0,1.0,83,0.00,,---,0.00,VWS V14.01,2013-08-08 13:56:00,
2013-08-08 07:00:00,57.5,52.7,30.03,WSW,249,0.0,4.0,84,0.00,,---,0.00,VWS V14.01,2013-08-08 14:00:00,
2013-08-08 07:01:00,57.5,52.7,30.03,WSW,250,0.0,4.0,84,0.00,,---,0.00,VWS V14.01,2013-08-08 14:01:00,
2013-08-08 07:05:00,57.5,52.7,30.03,West,279,2.0,2.0,84,0.00,,---,0.00,VWS V14.01,2013-08-08 14:05:00,
2013-08-08 07:06:00,57.5,52.7,30.03,West,267,1.0,1.0,84,0.00,,---,0.00,VWS V14.01,2013-08-08 14:06:00,
2013-08-08 07:10:00,57.5,52.4,30.03,SW,226,0.0,3.0,83,0.00,,---,0.00,VWS V14.01,2013-08-08 14:10:00,
2013-08-08 07:11:00,57.5,52.4,30.03,SW,226,0.0,3.0,83,0.00,,---,0.00,VWS V14.01,2013-08-08 14:11:00,
2013-08-08 07:15:00,57.6,52.8,30.03,South,170,0.0,4.0,84,0.00,,---,0.00,VWS V14.01,2013-08-08 14:15:00,
2013-08-08 07:16:00,57.5,52.7,30.03,West,262,0.0,4.0,84,0.00,,---,0.00,VWS V14.01,2013-08-08 14:16:00,
2013-08-08 07:20:00,57.7,52.9,30.03,South,174,0.0,0.0,84,0.00,,---,0.00,VWS V14.01,2013-08-08 14:20:00,
2013-08-08 07:21:00,57.7,52.9,30.03,South,172,0.0,0.0,84,0.00,,---,0.00,VWS V14.01,2013-08-08 14:21:00,
2013-08-08 07:25:00,57.8,53.3,30.03,WSW,257,0.0,1.0,85,0.00,,---,0.00,VWS V14.01,2013-08-08 14:25:00,
2013-08-08 07:26:00,57.8,53.0,30.03,WSW,257,1.0,1.0,84,0.00,,---,0.00,VWS V14.01,2013-08-08 14:26:00,
2013-08-08 07:30:00,57.7,52.9,30.03,West,260,1.0,3.0,84,0.00,,---,0.00,VWS V14.01,2013-08-08 14:30:00,
2013-08-08 07:31:00,57.7,52.9,30.03,West,270,2.0,3.0,84,0.00,,---,0.00,VWS V14.01,2013-08-08 14:31:00,
2013-08-08 07:35:00,57.7,52.9,30.03,WSW,240,2.0,3.0,84,0.00,,---,0.00,VWS V14.01,2013-08-08 14:35:00,
2013-08-08 07:36:00,57.7,52.9,30.03,West,274,0.0,3.0,84,0.00,,---,0.00,VWS V14.01,2013-08-08 14:36:00,
2013-08-08 07:40:00,57.8,53.0,30.03,SW,229,0.0,2.0,84,0.00,,---,0.00,VWS V14.01,2013-08-08 14:40:00,
2013-08-08 07:41:00,57.8,53.0,30.03,SW,229,0.0,2.0,84,0.00,,---,0.00,VWS V14.01,2013-08-08 14:41:00,
2013-08-08 07:45:00,57.8,53.3,30.03,WSW,252,1.0,1.0,85,0.00,,---,0.00,VWS V14.01,2013-08-08 14:45:00,
2013-08-08 07:46:00,57.9,53.4,30.03,WSW,246,0.0,0.0,85,0.00,,---,0.00,VWS V14.01,2013-08-08 14:46:00,
2013-08-08 07:50:00,57.9,53.4,30.03,WSW,258,0.0,3.0,85,0.00,,---,0.00,VWS V14.01,2013-08-08 14:50:00,
2013-08-08 07:51:00,57.9,53.4,30.03,SW,218,1.0,3.0,85,0.00,,---,0.00,VWS V14.01,2013-08-08 14:51:00,
2013-08-08 07:55:00,58.0,53.5,30.04,WSW,243,1.0,1.0,85,0.00,,---,0.00,VWS V14.01,2013-08-08 14:55:00,
2013-08-08 07:56:00,58.0,53.5,30.04,SE,139,0.0,1.0,85,0.00,,---,0.00,VWS V14.01,2013-08-08 14:56:00,
2013-08-08 08:00:00,58.1,53.6,30.03,SE,131,0.0,1.0,85,0.00,,---,0.00,VWS V14.01,2013-08-08 15:00:00,
2013-08-08 08:01:00,58.1,53.6,30.03,SW,217,1.0,1.0,85,0.00,,---,0.00,VWS V14.01,2013-08-08 15:01:00,
2013-08-08 08:05:00,58.2,53.7,30.03,WSW,249,0.0,1.0,85,0.00,,---,0.00,VWS V14.01,2013-08-08 15:05:00,
2013-08-08 08:06:00,58.2,53.7,30.03,West,274,0.0,1.0,85,0.00,,---,0.00,VWS V14.01,2013-08-08 15:06:00,
2013-08-08 08:10:00,58.3,53.8,30.03,SE,134,0.0,1.0,85,0.00,,---,0.00,VWS V14.01,2013-08-08 15:10:00,
2013-08-08 08:11:00,58.3,53.8,30.03,SE,134,0.0,1.0,85,0.00,,---,0.00,VWS V14.01,2013-08-08 15:11:00,
2013-08-08 08:15:00,58.4,53.9,30.03,WSW,257,1.0,2.0,85,0.00,,---,0.00,VWS V14.01,2013-08-08 15:15:00,
2013-08-08 08:16:00,58.4,53.9,30.03,SW,220,0.0,2.0,85,0.00,,---,0.00,VWS V14.01,2013-08-08 15:16:00,
2013-08-08 08:20:00,58.5,54.0,30.03,SE,136,0.0,2.0,85,0.00,,---,0.00,VWS V14.01,2013-08-08 15:20:00,
2013-08-08 08:21:00,58.5,54.0,30.03,WSW,248,0.0,2.0,85,0.00,,---,0.00,VWS V14.01,2013-08-08 15:21:00,
2013-08-08 08:25:00,58.5,54.0,30.03,WSW,252,0.0,2.0,85,0.00,,---,0.00,VWS V14.01,2013-08-08 15:25:00,
2013-08-08 08:26:00,58.6,54.1,30.03,WSW,247,0.0,2.0,85,0.00,,---,0.00,VWS V14.01,2013-08-08 15:26:00,
2013-08-08 08:30:00,58.6,54.1,30.03,SW,233,0.0,2.0,85,0.00,,---,0.00,VWS V14.01,2013-08-08 15:30:00,
2013-08-08 08:31:00,58.6,54.1,30.03,SW,233,0.0,2.0,85,0.00,,---,0.00,VWS V14.01,2013-08-08 15:31:00,
2013-08-08 08:35:00,58.7,54.2,30.03,WSW,251,0.0,2.0,85,0.00,,---,0.00,VWS V14.01,2013-08-08 15:35:00,
2013-08-08 08:36:00,58.7,54.2,30.03,WSW,251,0.0,2.0,85,0.00,,---,0.00,VWS V14.01,2013-08-08 15:36:00,
2013-08-08 08:40:00,59.0,54.5,30.03,West,276,1.0,1.0,85,0.00,,---,0.00,VWS V14.01,2013-08-08 15:40:00,
2013-08-08 08:41:00,58.9,54.4,30.03,West,276,0.0,1.0,85,0.00,,---,0.00,VWS V14.01,2013-08-08 15:41:00,
2013-08-08 08:45:00,58.9,54.7,30.03,WSW,252,0.0,4.0,86,0.00,,---,0.00,VWS V14.01,2013-08-08 15:45:00,
2013-08-08 08:46:00,58.9,54.4,30.03,WNW,295,1.0,4.0,85,0.00,,---,0.00,VWS V14.01,2013-08-08 15:46:00,
2013-08-08 08:50:00,58.9,54.4,30.03,SSW,212,0.0,3.0,85,0.00,,---,0.00,VWS V14.01,2013-08-08 15:50:00,
2013-08-08 08:51:00,58.9,54.4,30.03,SSW,200,1.0,3.0,85,0.00,,---,0.00,VWS V14.01,2013-08-08 15:51:00,
2013-08-08 08:55:00,59.0,54.8,30.03,WSW,245,0.0,2.0,86,0.00,,---,0.00,VWS V14.01,2013-08-08 15:55:00,
2013-08-08 08:56:00,59.0,54.8,30.03,WSW,245,0.0,2.0,86,0.00,,---,0.00,VWS V14.01,2013-08-08 15:56:00,
2013-08-08 09:00:00,59.3,54.8,30.03,SW,233,1.0,3.0,85,0.00,,---,0.00,VWS V14.01,2013-08-08 16:00:00,
2013-08-08 09:01:00,59.3,54.8,30.03,West,267,1.0,3.0,85,0.00,,---,0.00,VWS V14.01,2013-08-08 16:01:00,
2013-08-08 09:05:00,59.1,54.6,30.03,NNW,342,0.0,4.0,85,0.00,,---,0.00,VWS V14.01,2013-08-08 16:05:00,
2013-08-08 09:06:00,59.1,54.6,30.03,WSW,257,1.0,4.0,85,0.00,,---,0.00,VWS V14.01,2013-08-08 16:06:00,
2013-08-08 09:10:00,59.1,54.6,30.03,WSW,248,3.0,4.0,85,0.00,,---,0.00,VWS V14.01,2013-08-08 16:10:00,
2013-08-08 09:11:00,59.1,54.9,30.03,WNW,302,2.0,4.0,86,0.00,,---,0.00,VWS V14.01,2013-08-08 16:11:00,
2013-08-08 09:15:00,59.4,55.2,30.03,WNW,284,2.0,6.0,86,0.00,,---,0.00,VWS V14.01,2013-08-08 16:15:00,
2013-08-08 09:16:00,59.4,55.2,30.03,WSW,256,1.0,3.0,86,0.00,,---,0.00,VWS V14.01,2013-08-08 16:16:00,
2013-08-08 09:20:00,59.8,55.3,30.03,SW,236,0.0,3.0,85,0.00,,---,0.00,VWS V14.01,2013-08-08 16:20:00,
2013-08-08 09:21:00,59.7,55.2,30.03,SW,228,0.0,3.0,85,0.00,,---,0.00,VWS V14.01,2013-08-08 16:21:00,
2013-08-08 09:25:00,60.0,55.5,30.03,West,266,2.0,3.0,85,0.00,,---,0.00,VWS V14.01,2013-08-08 16:25:00,
2013-08-08 09:26:00,60.0,55.5,30.03,WNW,286,2.0,2.0,85,0.00,,---,0.00,VWS V14.01,2013-08-08 16:26:00,
2013-08-08 09:30:00,60.1,55.6,30.03,SW,234,2.0,5.0,85,0.00,,---,0.00,VWS V14.01,2013-08-08 16:30:00,
2013-08-08 09:31:00,60.1,55.6,30.03,West,266,1.0,5.0,85,0.00,,---,0.00,VWS V14.01,2013-08-08 16:31:00,
2013-08-08 09:35:00,60.1,55.6,30.03,WNW,290,4.0,5.0,85,0.00,,---,0.00,VWS V14.01,2013-08-08 16:35:00,
2013-08-08 09:36:00,60.1,55.6,30.03,West,273,1.0,4.0,85,0.00,,---,0.00,VWS V14.01,2013-08-08 16:36:00,
2013-08-08 09:40:00,60.5,56.0,30.03,West,272,0.0,4.0,85,0.00,,---,0.00,VWS V14.01,2013-08-08 16:40:00,
2013-08-08 09:41:00,60.5,56.0,30.03,West,268,1.0,4.0,85,0.00,,---,0.00,VWS V14.01,2013-08-08 16:41:00,
2013-08-08 09:45:00,60.9,56.4,30.03,WSW,252,3.0,4.0,85,0.00,,---,0.00,VWS V14.01,2013-08-08 16:45:00,
2013-08-08 09:46:00,60.8,56.3,30.03,WSW,250,0.0,3.0,85,0.00,,---,0.00,VWS V14.01,2013-08-08 16:46:00,
2013-08-08 09:50:00,61.0,56.1,30.03,West,273,1.0,6.0,84,0.00,,---,0.00,VWS V14.01,2013-08-08 16:50:00,
2013-08-08 09:51:00,61.0,56.1,30.03,WSW,257,2.0,6.0,84,0.00,,---,0.00,VWS V14.01,2013-08-08 16:51:00,
2013-08-08 09:55:00,61.1,56.2,30.03,WSW,255,3.0,5.0,84,0.00,,---,0.00,VWS V14.01,2013-08-08 16:55:00,
2013-08-08 09:56:00,61.1,56.2,30.03,SW,224,1.0,5.0,84,0.00,,---,0.00,VWS V14.01,2013-08-08 16:56:00,
2013-08-08 10:00:00,61.3,56.4,30.03,WSW,238,1.0,4.0,84,0.00,,---,0.00,VWS V14.01,2013-08-08 17:00:00,
2013-08-08 10:01:00,61.3,56.4,30.03,SSW,213,4.0,4.0,84,0.00,,---,0.00,VWS V14.01,2013-08-08 17:01:00,
2013-08-08 10:05:00,61.3,56.4,30.03,SE,142,1.0,7.0,84,0.00,,---,0.00,VWS V14.01,2013-08-08 17:05:00,
2013-08-08 10:06:00,61.3,56.4,30.03,WSW,249,0.0,7.0,84,0.00,,---,0.00,VWS V14.01,2013-08-08 17:06:00,
2013-08-08 10:10:00,61.6,56.7,30.03,SSE,159,1.0,6.0,84,0.00,,---,0.00,VWS V14.01,2013-08-08 17:10:00,
2013-08-08 10:11:00,61.6,56.7,30.03,West,266,1.0,6.0,84,0.00,,---,0.00,VWS V14.01,2013-08-08 17:11:00,
2013-08-08 10:15:00,61.9,56.7,30.03,WSW,256,1.0,5.0,83,0.00,,---,0.00,VWS V14.01,2013-08-08 17:15:00,
2013-08-08 10:16:00,62.0,56.8,30.03,West,269,1.0,5.0,83,0.00,,---,0.00,VWS V14.01,2013-08-08 17:16:00,
2013-08-08 10:20:00,62.3,57.1,30.03,West,259,3.0,5.0,83,0.00,,---,0.00,VWS V14.01,2013-08-08 17:20:00,
2013-08-08 10:21:00,62.2,57.3,30.03,WSW,257,1.0,5.0,84,0.00,,---,0.00,VWS V14.01,2013-08-08 17:21:00,
2013-08-08 10:25:00,62.3,57.1,30.03,WSW,253,1.0,6.0,83,0.00,,---,0.00,VWS V14.01,2013-08-08 17:25:00,
2013-08-08 10:26:00,62.3,57.1,30.03,SSW,208,2.0,4.0,83,0.00,,---,0.00,VWS V14.01,2013-08-08 17:26:00,
2013-08-08 10:30:00,62.0,56.8,30.03,SW,214,0.0,5.0,83,0.00,,---,0.00,VWS V14.01,2013-08-08 17:30:00,
2013-08-08 10:31:00,62.0,56.8,30.03,SW,219,0.0,5.0,83,0.00,,---,0.00,VWS V14.01,2013-08-08 17:31:00,
2013-08-08 10:35:00,62.3,57.1,30.03,West,281,2.0,5.0,83,0.00,,---,0.00,VWS V14.01,2013-08-08 17:35:00,
2013-08-08 10:36:00,62.3,57.1,30.03,WSW,238,3.0,4.0,83,0.00,,---,0.00,VWS V14.01,2013-08-08 17:36:00,
2013-08-08 10:40:00,62.1,56.9,30.03,WSW,252,3.0,4.0,83,0.00,,---,0.00,VWS V14.01,2013-08-08 17:40:00,
2013-08-08 10:41:00,62.2,56.6,30.03,West,280,1.0,4.0,82,0.00,,---,0.00,VWS V14.01,2013-08-08 17:41:00,
2013-08-08 10:45:00,61.8,56.6,30.03,West,278,3.0,6.0,83,0.00,,---,0.00,VWS V14.01,2013-08-08 17:45:00,
2013-08-08 10:46:00,61.8,56.6,30.03,NW,309,4.0,6.0,83,0.00,,---,0.00,VWS V14.01,2013-08-08 17:46:00,
2013-08-08 10:50:00,62.4,57.2,30.03,WNW,285,0.0,6.0,83,0.00,,---,0.00,VWS V14.01,2013-08-08 17:50:00,
2013-08-08 10:51:00,62.3,57.1,30.03,WNW,286,2.0,6.0,83,0.00,,---,0.00,VWS V14.01,2013-08-08 17:51:00,
2013-08-08 10:55:00,62.4,56.8,30.03,WSW,255,1.0,7.0,82,0.00,,---,0.00,VWS V14.01,2013-08-08 17:55:00,
2013-08-08 10:56:00,62.5,56.9,30.03,WSW,250,1.0,7.0,82,0.00,,---,0.00,VWS V14.01,2013-08-08 17:56:00,
2013-08-08 11:00:00,62.4,56.8,30.03,WSW,250,2.0,7.0,82,0.00,,---,0.00,VWS V14.01,2013-08-08 18:00:00,
2013-08-08 11:01:00,62.4,57.2,30.03,SW,225,7.0,7.0,83,0.00,,---,0.00,VWS V14.01,2013-08-08 18:01:00,
2013-08-08 11:05:00,62.2,57.0,30.03,WSW,237,1.0,7.0,83,0.00,,---,0.00,VWS V14.01,2013-08-08 18:05:00,
2013-08-08 11:06:00,62.2,57.0,30.03,WSW,253,5.0,7.0,83,0.00,,---,0.00,VWS V14.01,2013-08-08 18:06:00,
2013-08-08 11:10:00,62.5,57.3,30.03,WSW,248,2.0,5.0,83,0.00,,---,0.00,VWS V14.01,2013-08-08 18:10:00,
2013-08-08 11:11:00,62.5,56.9,30.03,SW,232,0.0,5.0,82,0.00,,---,0.00,VWS V14.01,2013-08-08 18:11:00,
2013-08-08 11:15:00,62.5,57.3,30.03,SW,229,3.0,5.0,83,0.00,,---,0.00,VWS V14.01,2013-08-08 18:15:00,
2013-08-08 11:20:00,62.8,57.2,30.03,WSW,257,1.0,6.0,82,0.00,,---,0.00,VWS V14.01,2013-08-08 18:20:00,
2013-08-08 11:25:00,63.0,57.1,30.02,WSW,250,4.0,6.0,81,0.00,,---,0.00,VWS V14.01,2013-08-08 18:25:00,
2013-08-08 11:30:00,63.6,57.7,30.02,SE,139,1.0,3.0,81,0.00,,---,0.00,VWS V14.01,2013-08-08 18:30:00,
2013-08-08 11:35:00,64.2,57.9,30.02,West,262,1.0,5.0,80,0.00,,---,0.00,VWS V14.01,2013-08-08 18:35:00,
2013-08-08 11:40:00,64.5,58.2,30.02,SSW,212,0.0,3.0,80,0.00,,---,0.00,VWS V14.01,2013-08-08 18:40:00,
2013-08-08 11:45:00,65.7,58.7,30.02,West,271,1.0,1.0,78,0.00,,---,0.00,VWS V14.01,2013-08-08 18:45:00,
2013-08-08 11:50:00,66.2,58.8,30.02,West,277,1.0,3.0,77,0.00,,---,0.00,VWS V14.01,2013-08-08 18:50:00,
2013-08-08 11:55:00,67.0,58.5,30.02,SE,139,0.0,2.0,74,0.00,,---,0.00,VWS V14.01,2013-08-08 18:55:00,
2013-08-08 12:00:00,66.7,58.5,30.02,WSW,245,1.0,7.0,75,0.00,,---,0.00,VWS V14.01,2013-08-08 19:00:00,
2013-08-08 12:05:00,66.9,58.3,30.01,West,281,1.0,4.0,74,0.00,,---,0.00,VWS V14.01,2013-08-08 19:05:00,
2013-08-08 12:10:00,67.3,58.4,30.01,SW,235,3.0,5.0,73,0.00,,---,0.00,VWS V14.01,2013-08-08 19:10:00,
2013-08-08 12:15:00,67.4,58.5,30.01,NNW,348,4.0,4.0,73,0.00,,---,0.00,VWS V14.01,2013-08-08 19:15:00,
2013-08-08 12:20:00,68.1,58.7,30.01,South,188,1.0,4.0,72,0.00,,---,0.00,VWS V14.01,2013-08-08 19:20:00,
2013-08-08 12:25:00,68.8,59.0,30.01,WSW,256,1.0,5.0,71,0.00,,---,0.00,VWS V14.01,2013-08-08 19:25:00,
2013-08-08 12:30:00,68.8,59.4,30.01,SSW,210,4.0,6.0,72,0.00,,---,0.00,VWS V14.01,2013-08-08 19:30:00,
2013-08-08 12:35:00,69.9,59.7,30.00,WSW,257,0.0,3.0,70,0.00,,---,0.00,VWS V14.01,2013-08-08 19:35:00,
2013-08-08 12:40:00,71.1,59.6,30.00,WSW,258,1.0,3.0,67,0.00,,---,0.00,VWS V14.01,2013-08-08 19:40:00,
2013-08-08 12:45:00,71.6,59.2,30.00,WNW,286,2.0,6.0,65,0.00,,---,0.00,VWS V14.01,2013-08-08 19:45:00,
2013-08-08 12:50:00,71.1,59.6,30.00,West,262,2.0,6.0,67,0.00,,---,0.00,VWS V14.01,2013-08-08 19:50:00,
2013-08-08 12:55:00,71.2,59.3,30.00,WSW,238,2.0,4.0,66,0.00,,---,0.00,VWS V14.01,2013-08-08 19:55:00,
2013-08-08 13:00:00,71.6,59.7,30.00,WNW,298,3.0,5.0,66,0.00,,---,0.00,VWS V14.01,2013-08-08 20:00:00,
2013-08-08 13:05:00,71.8,59.0,30.00,NW,321,4.0,7.0,64,0.00,,---,0.00,VWS V14.01,2013-08-08 20:05:00,
2013-08-08 13:10:00,72.1,60.1,30.00,SSE,151,1.0,5.0,66,0.00,,---,0.00,VWS V14.01,2013-08-08 20:10:00,
2013-08-08 13:15:00,73.3,60.0,29.99,WSW,247,2.0,3.0,63,0.00,,---,0.00,VWS V14.01,2013-08-08 20:15:00,
2013-08-08 13:20:00,73.7,59.9,29.99,SE,124,2.0,4.0,62,0.00,,---,0.00,VWS V14.01,2013-08-08 20:20:00,
2013-08-08 13:25:00,74.0,59.7,29.99,West,269,4.0,5.0,61,0.00,,---,0.00,VWS V14.01,2013-08-08 20:25:00,
2013-08-08 13:30:00,74.4,59.6,29.99,SSE,150,1.0,4.0,60,0.00,,---,0.00,VWS V14.01,2013-08-08 20:30:00,
2013-08-08 13:35:00,75.1,60.3,29.99,SE,141,0.0,2.0,60,0.00,,---,0.00,VWS V14.01,2013-08-08 20:35:00,
2013-08-08 13:40:00,75.5,59.7,29.99,SSW,200,1.0,5.0,58,0.00,,---,0.00,VWS V14.01,2013-08-08 20:40:00,
2013-08-08 13:45:00,76.2,60.4,29.99,West,262,2.0,4.0,58,0.00,,---,0.00,VWS V14.01,2013-08-08 20:45:00,
2013-08-08 13:50:00,76.3,60.0,29.99,WSW,248,3.0,8.0,57,0.00,,---,0.00,VWS V14.01,2013-08-08 20:50:00,
2013-08-08 13:55:00,76.6,59.8,29.99,ESE,120,1.0,3.0,56,0.00,,---,0.00,VWS V14.01,2013-08-08 20:55:00,
2013-08-08 14:00:00,76.8,59.4,29.99,WNW,287,2.0,3.0,55,0.00,,---,0.00,VWS V14.01,2013-08-08 21:00:00,
2013-08-08 14:05:00,76.6,59.2,29.98,NW,311,3.0,6.0,55,0.00,,---,0.00,VWS V14.01,2013-08-08 21:05:00,
2013-08-08 14:10:00,76.7,59.3,29.98,SSE,158,3.0,3.0,55,0.00,,---,0.00,VWS V14.01,2013-08-08 21:10:00,
2013-08-08 14:15:00,77.3,59.9,29.98,SSE,160,2.0,2.0,55,0.00,,---,0.00,VWS V14.01,2013-08-08 21:15:00,
2013-08-08 14:16:00,77.2,59.8,29.98,South,191,1.0,2.0,55,0.00,,---,0.00,VWS V14.01,2013-08-08 21:16:00,
2013-08-08 14:20:00,77.9,59.9,29.98,SW,218,4.0,4.0,54,0.00,,---,0.00,VWS V14.01,2013-08-08 21:20:00,
2013-08-08 14:21:00,77.7,60.3,29.98,South,170,3.0,3.0,55,0.00,,---,0.00,VWS V14.01,2013-08-08 21:21:00,
2013-08-08 14:25:00,78.0,60.0,29.98,SSE,147,1.0,5.0,54,0.00,,---,0.00,VWS V14.01,2013-08-08 21:25:00,
2013-08-08 14:26:00,78.0,60.0,29.98,SW,231,0.0,5.0,54,0.00,,---,0.00,VWS V14.01,2013-08-08 21:26:00,
2013-08-08 14:30:00,78.1,59.6,29.98,WSW,237,5.0,6.0,53,0.00,,---,0.00,VWS V14.01,2013-08-08 21:30:00,
2013-08-08 14:31:00,78.1,59.6,29.98,West,260,2.0,6.0,53,0.00,,---,0.00,VWS V14.01,2013-08-08 21:31:00,
2013-08-08 14:35:00,77.6,59.7,29.98,SW,232,2.0,5.0,54,0.00,,---,0.00,VWS V14.01,2013-08-08 21:35:00,
2013-08-08 14:36:00,77.6,59.7,29.98,West,266,3.0,5.0,54,0.00,,---,0.00,VWS V14.01,2013-08-08 21:36:00,
2013-08-08 14:40:00,78.2,59.7,29.98,SE,146,1.0,3.0,53,0.00,,---,0.00,VWS V14.01,2013-08-08 21:40:00,
2013-08-08 14:41:00,78.2,59.7,29.98,SSE,159,1.0,3.0,53,0.00,,---,0.00,VWS V14.01,2013-08-08 21:41:00,
2013-08-08 14:45:00,78.6,60.1,29.98,West,275,2.0,5.0,53,0.00,,---,0.00,VWS V14.01,2013-08-08 21:45:00,
2013-08-08 14:46:00,78.5,60.0,29.98,West,259,1.0,5.0,53,0.00,,---,0.00,VWS V14.01,2013-08-08 21:46:00,
2013-08-08 14:50:00,79.0,60.4,29.98,WSW,237,3.0,3.0,53,0.00,,---,0.00,VWS V14.01,2013-08-08 21:50:00,
2013-08-08 14:51:00,79.0,60.4,29.98,NNW,327,2.0,2.0,53,0.00,,---,0.00,VWS V14.01,2013-08-08 21:51:00,
2013-08-08 14:55:00,79.2,60.1,29.98,WSW,258,2.0,4.0,52,0.00,,---,0.00,VWS V14.01,2013-08-08 21:55:00,
2013-08-08 14:56:00,79.2,60.1,29.98,NW,326,3.0,4.0,52,0.00,,---,0.00,VWS V14.01,2013-08-08 21:56:00,
2013-08-08 15:00:00,78.7,59.1,29.98,West,274,1.0,5.0,51,0.00,,---,0.00,VWS V14.01,2013-08-08 22:00:00,
2013-08-08 15:01:00,78.7,59.6,29.98,West,273,1.0,5.0,52,0.00,,---,0.00,VWS V14.01,2013-08-08 22:01:00,
2013-08-08 15:06:00,78.8,59.7,29.98,WNW,303,2.0,4.0,52,0.00,,---,0.00,VWS V14.01,2013-08-08 22:06:00,
2013-08-08 15:11:00,78.7,59.6,29.98,WSW,237,2.0,2.0,52,0.00,,---,0.00,VWS V14.01,2013-08-08 22:11:00,
2013-08-08 15:15:00,78.4,59.3,29.98,South,176,2.0,6.0,52,0.00,,---,0.00,VWS V14.01,2013-08-08 22:15:00,
2013-08-08 15:16:00,78.4,59.3,29.98,SE,143,3.0,6.0,52,0.00,,---,0.00,VWS V14.01,2013-08-08 22:16:00,
2013-08-08 15:20:00,78.1,59.6,29.98,West,276,4.0,7.0,53,0.00,,---,0.00,VWS V14.01,2013-08-08 22:20:00,
2013-08-08 15:22:00,78.1,59.6,29.98,NW,323,4.0,5.0,53,0.00,,---,0.00,VWS V14.01,2013-08-08 22:22:00,
2013-08-08 15:25:00,78.1,59.6,29.97,WNW,290,5.0,6.0,53,0.00,,---,0.00,VWS V14.01,2013-08-08 22:25:00,
2013-08-08 15:27:00,78.1,59.6,29.97,WNW,293,6.0,8.0,53,0.00,,---,0.00,VWS V14.01,2013-08-08 22:27:00,
2013-08-08 15:30:00,77.9,59.4,29.97,NW,312,5.0,8.0,53,0.00,,---,0.00,VWS V14.01,2013-08-08 22:30:00,
2013-08-08 15:32:00,77.9,59.4,29.97,WNW,302,4.0,6.0,53,0.00,,---,0.00,VWS V14.01,2013-08-08 22:32:00,
2013-08-08 15:35:00,78.2,59.7,29.97,North,356,0.0,6.0,53,0.00,,---,0.00,VWS V14.01,2013-08-08 22:35:00,
2013-08-08 15:37:00,78.3,59.8,29.97,NNE,13,0.0,1.0,53,0.00,,---,0.00,VWS V14.01,2013-08-08 22:37:00,
2013-08-08 15:40:00,78.7,59.6,29.97,ESE,105,0.0,4.0,52,0.00,,---,0.00,VWS V14.01,2013-08-08 22:40:00,
2013-08-08 15:42:00,78.8,59.7,29.97,ESE,105,0.0,1.0,52,0.00,,---,0.00,VWS V14.01,2013-08-08 22:42:00,
2013-08-08 15:45:00,78.4,59.9,29.97,NW,309,5.0,5.0,53,0.00,,---,0.00,VWS V14.01,2013-08-08 22:45:00,
2013-08-08 15:47:00,78.4,59.9,29.97,West,267,3.0,6.0,53,0.00,,---,0.00,VWS V14.01,2013-08-08 22:47:00,
2013-08-08 15:50:00,78.7,60.2,29.97,NW,321,3.0,8.0,53,0.00,,---,0.00,VWS V14.01,2013-08-08 22:50:00,
2013-08-08 15:52:00,78.8,60.8,29.97,NW,313,3.0,5.0,54,0.00,,---,0.00,VWS V14.01,2013-08-08 22:52:00,
2013-08-08 15:55:00,78.8,59.7,29.97,WNW,282,5.0,8.0,52,0.00,,---,0.00,VWS V14.01,2013-08-08 22:55:00,
2013-08-08 15:57:00,78.5,59.4,29.97,WNW,291,7.0,8.0,52,0.00,,---,0.00,VWS V14.01,2013-08-08 22:57:00,
2013-08-08 16:00:00,78.2,59.7,29.97,WNW,299,8.0,9.0,53,0.00,,---,0.00,VWS V14.01,2013-08-08 23:00:00,
2013-08-08 16:02:00,77.9,59.4,29.97,WNW,290,4.0,8.0,53,0.00,,---,0.00,VWS V14.01,2013-08-08 23:02:00,
2013-08-08 16:05:00,77.7,59.8,29.97,West,264,4.0,8.0,54,0.00,,---,0.00,VWS V14.01,2013-08-08 23:05:00,
2013-08-08 16:08:00,77.7,59.8,29.97,WNW,297,4.0,8.0,54,0.00,,---,0.00,VWS V14.01,2013-08-08 23:08:00,
2013-08-08 16:10:00,77.9,59.9,29.96,WNW,291,3.0,8.0,54,0.00,,---,0.00,VWS V14.01,2013-08-08 23:10:00,
2013-08-08 16:12:00,78.0,60.0,29.96,WNW,290,3.0,6.0,54,0.00,,---,0.00,VWS V14.01,2013-08-08 23:12:00,
2013-08-08 16:15:00,78.0,59.5,29.96,NW,326,4.0,6.0,53,0.00,,---,0.00,VWS V14.01,2013-08-08 23:15:00,
2013-08-08 16:18:00,78.0,60.0,29.97,NNW,330,3.0,4.0,54,0.00,,---,0.00,VWS V14.01,2013-08-08 23:18:00,
2013-08-08 16:20:00,77.8,59.8,29.96,NNW,332,4.0,6.0,54,0.00,,---,0.00,VWS V14.01,2013-08-08 23:20:00,
2013-08-08 16:23:00,77.7,59.8,29.96,NNW,340,4.0,4.0,54,0.00,,---,0.00,VWS V14.01,2013-08-08 23:23:00,
2013-08-08 16:25:00,77.7,59.8,29.96,NNW,340,5.0,6.0,54,0.00,,---,0.00,VWS V14.01,2013-08-08 23:25:00,
2013-08-08 16:28:00,77.7,59.8,29.96,North,1,4.0,6.0,54,0.00,,---,0.00,VWS V14.01,2013-08-08 23:28:00,
2013-08-08 16:30:00,77.6,59.7,29.96,NW,314,2.0,6.0,54,0.00,,---,0.00,VWS V14.01,2013-08-08 23:30:00,
2013-08-08 16:33:00,77.6,60.2,29.96,WNW,303,6.0,7.0,55,0.00,,---,0.00,VWS V14.01,2013-08-08 23:33:00,
2013-08-08 16:35:00,77.4,60.0,29.96,NW,307,7.0,8.0,55,0.00,,---,0.00,VWS V14.01,2013-08-08 23:35:00,
2013-08-08 16:38:00,77.4,60.0,29.96,NW,314,5.0,7.0,55,0.00,,---,0.00,VWS V14.01,2013-08-08 23:38:00,
2013-08-08 16:40:00,77.3,60.4,29.96,NW,321,4.0,9.0,56,0.00,,---,0.00,VWS V14.01,2013-08-08 23:40:00,
2013-08-08 16:43:00,77.2,59.8,29.96,WNW,300,6.0,7.0,55,0.00,,---,0.00,VWS V14.01,2013-08-08 23:43:00,
2013-08-08 16:45:00,76.9,59.5,29.96,WNW,298,4.0,7.0,55,0.00,,---,0.00,VWS V14.01,2013-08-08 23:45:00,
2013-08-08 16:48:00,76.7,59.8,29.96,WNW,295,4.0,7.0,56,0.00,,---,0.00,VWS V14.01,2013-08-08 23:48:00,
2013-08-08 16:50:00,76.5,59.7,29.96,ESE,117,2.0,7.0,56,0.00,,---,0.00,VWS V14.01,2013-08-08 23:50:00,
2013-08-08 16:53:00,76.6,59.8,29.96,NW,311,2.0,6.0,56,0.00,,---,0.00,VWS V14.01,2013-08-08 23:53:00,
2013-08-08 16:55:00,76.2,59.4,29.96,WNW,292,4.0,6.0,56,0.00,,---,0.00,VWS V14.01,2013-08-08 23:55:00,
2013-08-08 16:58:00,76.2,59.9,29.96,WNW,302,4.0,5.0,57,0.00,,---,0.00,VWS V14.01,2013-08-08 23:58:00,
2013-08-08 17:00:00,76.3,59.5,29.96,NW,322,4.0,5.0,56,0.00,,---,0.00,VWS V14.01,2013-08-09 00:00:00,
2013-08-08 17:03:00,76.1,59.3,29.96,WNW,293,5.0,6.0,56,0.00,,---,0.00,VWS V14.01,2013-08-09 00:03:00,
2013-08-08 17:05:00,75.8,60.0,29.96,WNW,295,3.0,7.0,58,0.00,,---,0.00,VWS V14.01,2013-08-09 00:05:00,
2013-08-08 17:08:00,75.6,59.8,29.96,North,350,4.0,8.0,58,0.00,,---,0.00,VWS V14.01,2013-08-09 00:08:00,
2013-08-08 17:10:00,75.4,59.6,29.96,NNW,347,2.0,8.0,58,0.00,,---,0.00,VWS V14.01,2013-08-09 00:10:00,
2013-08-08 17:13:00,75.3,59.5,29.96,NW,311,4.0,8.0,58,0.00,,---,0.00,VWS V14.01,2013-08-09 00:13:00,
2013-08-08 17:15:00,75.0,59.7,29.96,WNW,301,8.0,8.0,59,0.00,,---,0.00,VWS V14.01,2013-08-09 00:15:00,
2013-08-08 17:18:00,74.9,59.1,29.96,North,353,4.0,8.0,58,0.00,,---,0.00,VWS V14.01,2013-08-09 00:18:00,
2013-08-08 17:20:00,74.9,59.1,29.96,WNW,288,4.0,8.0,58,0.00,,---,0.00,VWS V14.01,2013-08-09 00:20:00,
2013-08-08 17:23:00,74.7,59.4,29.96,WNW,290,2.0,7.0,59,0.00,,---,0.00,VWS V14.01,2013-08-09 00:23:00,
2013-08-08 17:25:00,74.6,59.3,29.96,NW,307,5.0,7.0,59,0.00,,---,0.00,VWS V14.01,2013-08-09 00:25:00,
2013-08-08 17:28:00,74.3,59.1,29.96,West,279,4.0,7.0,59,0.00,,---,0.00,VWS V14.01,2013-08-09 00:28:00,
2013-08-08 17:30:00,74.1,58.9,29.96,WNW,302,3.0,7.0,59,0.00,,---,0.00,VWS V14.01,2013-08-09 00:30:00,
2013-08-08 17:33:00,74.0,58.3,29.96,NNW,333,2.0,7.0,58,0.00,,---,0.00,VWS V14.01,2013-08-09 00:33:00,
2013-08-08 17:35:00,74.0,58.8,29.96,WNW,293,3.0,7.0,59,0.00,,---,0.00,VWS V14.01,2013-08-09 00:35:00,
2013-08-08 17:38:00,74.0,58.3,29.96,NW,312,6.0,6.0,58,0.00,,---,0.00,VWS V14.01,2013-08-09 00:38:00,
2013-08-08 17:40:00,73.8,58.1,29.96,WNW,288,3.0,7.0,58,0.00,,---,0.00,VWS V14.01,2013-08-09 00:40:00,
2013-08-08 17:44:00,73.7,58.0,29.96,WNW,303,6.0,7.0,58,0.00,,---,0.00,VWS V14.01,2013-08-09 00:44:00,
2013-08-08 17:45:00,73.6,57.9,29.96,NW,314,4.0,7.0,58,0.00,,---,0.00,VWS V14.01,2013-08-09 00:45:00,
2013-08-08 17:49:00,73.7,58.0,29.95,WNW,301,3.0,6.0,58,0.00,,---,0.00,VWS V14.01,2013-08-09 00:49:00,
2013-08-08 17:50:00,73.7,58.0,29.95,NW,308,2.0,6.0,58,0.00,,---,0.00,VWS V14.01,2013-08-09 00:50:00,
2013-08-08 17:54:00,74.0,58.3,29.95,WNW,285,2.0,5.0,58,0.00,,---,0.00,VWS V14.01,2013-08-09 00:54:00,
2013-08-08 17:55:00,74.3,58.1,29.95,NNW,332,3.0,5.0,57,0.00,,---,0.00,VWS V14.01,2013-08-09 00:55:00,
2013-08-08 17:59:00,74.5,58.3,29.95,WNW,282,4.0,4.0,57,0.00,,---,0.00,VWS V14.01,2013-08-09 00:59:00,
2013-08-08 18:00:00,74.6,57.9,29.95,NW,306,4.0,6.0,56,0.00,,---,0.00,VWS V14.01,2013-08-09 01:00:00,
2013-08-08 18:04:00,74.7,58.0,29.95,NNW,330,4.0,7.0,56,0.00,,---,0.00,VWS V14.01,2013-08-09 01:04:00,
2013-08-08 18:05:00,74.9,58.7,29.95,NNW,332,3.0,7.0,57,0.00,,---,0.00,VWS V14.01,2013-08-09 01:05:00,
2013-08-08 18:09:00,75.3,58.0,29.95,NNW,343,4.0,8.0,55,0.00,,---,0.00,VWS V14.01,2013-08-09 01:09:00,
2013-08-08 18:10:00,75.5,58.2,29.95,NW,319,4.0,8.0,55,0.00,,---,0.00,VWS V14.01,2013-08-09 01:10:00,
2013-08-08 18:14:00,75.6,58.3,29.95,WSW,248,1.0,5.0,55,0.00,,---,0.00,VWS V14.01,2013-08-09 01:14:00,
2013-08-08 18:15:00,75.8,58.5,29.95,NW,321,0.0,5.0,55,0.00,,---,0.00,VWS V14.01,2013-08-09 01:15:00,
2013-08-08 18:20:00,76.1,58.3,29.95,WNW,300,3.0,4.0,54,0.00,,---,0.00,VWS V14.01,2013-08-09 01:20:00,
2013-08-08 18:25:00,76.2,57.8,29.95,West,260,1.0,5.0,53,0.00,,---,0.00,VWS V14.01,2013-08-09 01:25:00,
2013-08-08 18:30:00,75.9,57.6,29.94,NW,314,1.0,5.0,53,0.00,,---,0.00,VWS V14.01,2013-08-09 01:30:00,
2013-08-08 18:35:00,75.7,57.4,29.94,WNW,298,1.0,6.0,53,0.00,,---,0.00,VWS V14.01,2013-08-09 01:35:00,
2013-08-08 18:40:00,75.9,57.6,29.94,NW,319,1.0,5.0,53,0.00,,---,0.00,VWS V14.01,2013-08-09 01:40:00,
2013-08-08 18:45:00,76.2,57.8,29.94,NNW,343,2.0,4.0,53,0.00,,---,0.00,VWS V14.01,2013-08-09 01:45:00,
2013-08-08 18:50:00,76.6,58.2,29.94,East,87,1.0,4.0,53,0.00,,---,0.00,VWS V14.01,2013-08-09 01:50:00,
2013-08-08 18:55:00,77.1,58.7,29.94,NW,320,1.0,2.0,53,0.00,,---,0.00,VWS V14.01,2013-08-09 01:55:00,
2013-08-08 18:56:00,77.0,58.6,29.94,NE,43,2.0,2.0,53,0.00,,---,0.00,VWS V14.01,2013-08-09 01:56:00,
2013-08-08 19:00:00,77.2,58.2,29.94,North,11,2.0,4.0,52,0.00,,---,0.00,VWS V14.01,2013-08-09 02:00:00,
2013-08-08 19:01:00,77.2,58.2,29.94,ENE,70,3.0,4.0,52,0.00,,---,0.00,VWS V14.01,2013-08-09 02:01:00,
2013-08-08 19:05:00,77.1,58.7,29.93,NNW,345,0.0,4.0,53,0.00,,---,0.00,VWS V14.01,2013-08-09 02:05:00,
2013-08-08 19:06:00,77.1,58.7,29.93,NNW,345,0.0,4.0,53,0.00,,---,0.00,VWS V14.01,2013-08-09 02:06:00,
2013-08-08 19:10:00,77.4,58.4,29.93,NNE,32,2.0,4.0,52,0.00,,---,0.00,VWS V14.01,2013-08-09 02:10:00,
2013-08-08 19:11:00,77.4,58.4,29.93,NE,38,2.0,4.0,52,0.00,,---,0.00,VWS V14.01,2013-08-09 02:11:00,
2013-08-08 19:15:00,77.3,58.8,29.93,NE,51,1.0,4.0,53,0.00,,---,0.00,VWS V14.01,2013-08-09 02:15:00,
2013-08-08 19:16:00,77.3,58.8,29.93,NE,51,1.0,4.0,53,0.00,,---,0.00,VWS V14.01,2013-08-09 02:16:00,
2013-08-08 19:20:00,77.5,59.0,29.93,East,101,1.0,4.0,53,0.00,,---,0.00,VWS V14.01,2013-08-09 02:20:00,
2013-08-08 19:21:00,77.5,59.0,29.93,East,101,1.0,4.0,53,0.00,,---,0.00,VWS V14.01,2013-08-09 02:21:00,
2013-08-08 19:25:00,77.2,58.8,29.93,North,4,1.0,3.0,53,0.00,,---,0.00,VWS V14.01,2013-08-09 02:25:00,
2013-08-08 19:26:00,77.2,58.8,29.93,North,4,1.0,3.0,53,0.00,,---,0.00,VWS V14.01,2013-08-09 02:26:00,
2013-08-08 19:30:00,77.3,58.8,29.93,NNE,29,0.0,3.0,53,0.00,,---,0.00,VWS V14.01,2013-08-09 02:30:00,
2013-08-08 19:31:00,77.3,58.8,29.93,NNE,29,0.0,0.0,53,0.00,,---,0.00,VWS V14.01,2013-08-09 02:31:00,
2013-08-08 19:35:00,76.8,57.9,29.93,East,96,3.0,7.0,52,0.00,,---,0.00,VWS V14.01,2013-08-09 02:35:00,
2013-08-08 19:36:00,76.8,57.9,29.93,East,96,3.0,7.0,52,0.00,,---,0.00,VWS V14.01,2013-08-09 02:36:00,
2013-08-08 19:40:00,75.9,56.5,29.94,ESE,103,0.0,3.0,51,0.00,,---,0.00,VWS V14.01,2013-08-09 02:40:00,
2013-08-08 19:41:00,75.9,56.5,29.94,ESE,103,0.0,0.0,51,0.00,,---,0.00,VWS V14.01,2013-08-09 02:41:00,
2013-08-08 19:45:00,75.3,56.5,29.94,SE,139,1.0,3.0,52,0.00,,---,0.00,VWS V14.01,2013-08-09 02:45:00,
2013-08-08 19:46:00,75.3,56.5,29.94,SE,139,1.0,1.0,52,0.00,,---,0.00,VWS V14.01,2013-08-09 02:46:00,
2013-08-08 19:50:00,74.7,56.5,29.94,East,86,0.0,3.0,53,0.00,,---,0.00,VWS V14.01,2013-08-09 02:50:00,
2013-08-08 19:52:00,74.7,56.5,29.94,East,86,1.0,1.0,53,0.00,,---,0.00,VWS V14.01,2013-08-09 02:52:00,
2013-08-08 19:55:00,74.3,56.1,29.94,ESE,110,1.0,4.0,53,0.00,,---,0.00,VWS V14.01,2013-08-09 02:55:00,
2013-08-08 19:57:00,74.3,56.1,29.94,ENE,60,3.0,3.0,53,0.00,,---,0.00,VWS V14.01,2013-08-09 02:57:00,
2013-08-08 20:00:00,73.8,56.1,29.94,ESE,111,0.0,4.0,54,0.00,,---,0.00,VWS V14.01,2013-08-09 03:00:00,
2013-08-08 20:02:00,73.8,56.1,29.94,ESE,111,1.0,1.0,54,0.00,,---,0.00,VWS V14.01,2013-08-09 03:02:00,
2013-08-08 20:05:00,73.7,56.5,29.94,ENE,68,3.0,4.0,55,0.00,,---,0.00,VWS V14.01,2013-08-09 03:05:00,
2013-08-08 20:07:00,73.6,56.5,29.94,East,87,1.0,3.0,55,0.00,,---,0.00,VWS V14.01,2013-08-09 03:07:00,
2013-08-08 20:10:00,73.3,56.2,29.94,East,81,0.0,3.0,55,0.00,,---,0.00,VWS V14.01,2013-08-09 03:10:00,
2013-08-08 20:12:00,73.3,56.2,29.94,East,89,1.0,3.0,55,0.00,,---,0.00,VWS V14.01,2013-08-09 03:12:00,
2013-08-08 20:15:00,73.2,56.1,29.94,East,89,0.0,3.0,55,0.00,,---,0.00,VWS V14.01,2013-08-09 03:15:00,
2013-08-08 20:17:00,73.1,56.0,29.94,East,85,2.0,2.0,55,0.00,,---,0.00,VWS V14.01,2013-08-09 03:17:00,
2013-08-08 20:20:00,72.6,55.5,29.94,ENE,75,0.0,3.0,55,0.00,,---,0.00,VWS V14.01,2013-08-09 03:20:00,
2013-08-08 20:22:00,72.5,55.9,29.94,ENE,75,0.0,1.0,56,0.00,,---,0.00,VWS V14.01,2013-08-09 03:22:00,
2013-08-08 20:25:00,72.1,55.6,29.94,NE,42,1.0,2.0,56,0.00,,---,0.00,VWS V14.01,2013-08-09 03:25:00,
2013-08-08 20:27:00,72.0,56.0,29.94,NNE,29,0.0,2.0,57,0.00,,---,0.00,VWS V14.01,2013-08-09 03:27:00,
2013-08-08 20:30:00,71.5,55.5,29.94,NNE,32,1.0,4.0,57,0.00,,---,0.00,VWS V14.01,2013-08-09 03:30:00,
2013-08-08 20:32:00,71.4,55.4,29.94,NE,54,4.0,4.0,57,0.00,,---,0.00,VWS V14.01,2013-08-09 03:32:00,
2013-08-08 20:35:00,70.9,55.4,29.94,NNW,341,1.0,4.0,58,0.00,,---,0.00,VWS V14.01,2013-08-09 03:35:00,
2013-08-08 20:37:00,70.8,55.3,29.94,NE,34,1.0,2.0,58,0.00,,---,0.00,VWS V14.01,2013-08-09 03:37:00,
2013-08-08 20:40:00,70.5,55.5,29.94,ENE,76,0.0,4.0,59,0.00,,---,0.00,VWS V14.01,2013-08-09 03:40:00,
2013-08-08 20:43:00,70.4,55.4,29.94,ENE,77,1.0,1.0,59,0.00,,---,0.00,VWS V14.01,2013-08-09 03:43:00,
2013-08-08 20:45:00,70.1,55.1,29.94,East,98,0.0,5.0,59,0.00,,---,0.00,VWS V14.01,2013-08-09 03:45:00,
2013-08-08 20:48:00,70.1,55.1,29.94,ENE,66,0.0,2.0,59,0.00,,---,0.00,VWS V14.01,2013-08-09 03:48:00,
2013-08-08 20:50:00,69.8,55.3,29.94,NE,52,1.0,2.0,60,0.00,,---,0.00,VWS V14.01,2013-08-09 03:50:00,
2013-08-08 20:53:00,69.7,55.2,29.94,NE,34,2.0,2.0,60,0.00,,---,0.00,VWS V14.01,2013-08-09 03:53:00,
2013-08-08 20:55:00,69.5,55.0,29.93,ENE,64,3.0,3.0,60,0.00,,---,0.00,VWS V14.01,2013-08-09 03:55:00,
2013-08-08 20:58:00,69.5,55.0,29.93,NNE,22,0.0,3.0,60,0.00,,---,0.00,VWS V14.01,2013-08-09 03:58:00,
2013-08-08 21:00:00,69.3,54.8,29.94,NE,40,1.0,3.0,60,0.00,,---,0.00,VWS V14.01,2013-08-09 04:00:00,
2013-08-08 21:01:00,69.4,54.9,29.94,East,84,1.0,3.0,60,0.00,,---,0.00,VWS V14.01,2013-08-09 04:01:00,
2013-08-08 21:05:00,69.1,54.7,29.93,North,8,0.0,4.0,60,0.00,,---,0.00,VWS V14.01,2013-08-09 04:05:00,
2013-08-08 21:06:00,69.2,54.7,29.93,North,8,0.0,4.0,60,0.00,,---,0.00,VWS V14.01,2013-08-09 04:06:00,
2013-08-08 21:10:00,68.9,54.9,29.94,North,8,0.0,1.0,61,0.00,,---,0.00,VWS V14.01,2013-08-09 04:10:00,
2013-08-08 21:11:00,68.9,54.9,29.94,North,8,0.0,1.0,61,0.00,,---,0.00,VWS V14.01,2013-08-09 04:11:00,
2013-08-08 21:15:00,68.6,54.6,29.94,North,8,1.0,1.0,61,0.00,,---,0.00,VWS V14.01,2013-08-09 04:15:00,
2013-08-08 21:16:00,68.7,54.7,29.94,North,10,0.0,1.0,61,0.00,,---,0.00,VWS V14.01,2013-08-09 04:16:00,
2013-08-08 21:20:00,68.6,54.2,29.94,ENE,60,0.0,4.0,60,0.00,,---,0.00,VWS V14.01,2013-08-09 04:20:00,
2013-08-08 21:21:00,68.6,54.2,29.94,ENE,60,0.0,4.0,60,0.00,,---,0.00,VWS V14.01,2013-08-09 04:21:00,
2013-08-08 21:25:00,68.5,54.5,29.94,NNW,339,0.0,2.0,61,0.00,,---,0.00,VWS V14.01,2013-08-09 04:25:00,
2013-08-08 21:26:00,68.5,54.5,29.94,NNW,339,0.0,2.0,61,0.00,,---,0.00,VWS V14.01,2013-08-09 04:26:00,
2013-08-08 21:30:00,68.2,54.2,29.94,NNW,338,0.0,1.0,61,0.00,,---,0.00,VWS V14.01,2013-08-09 04:30:00,
2013-08-08 21:31:00,68.2,54.2,29.94,NNW,338,0.0,1.0,61,0.00,,---,0.00,VWS V14.01,2013-08-09 04:31:00,
2013-08-08 21:35:00,67.9,54.0,29.94,NNW,338,0.0,0.0,61,0.00,,---,0.00,VWS V14.01,2013-08-09 04:35:00,
2013-08-08 21:36:00,67.9,54.0,29.94,NNW,338,0.0,0.0,61,0.00,,---,0.00,VWS V14.01,2013-08-09 04:36:00,
2013-08-08 21:40:00,67.6,54.1,29.94,North,355,1.0,1.0,62,0.00,,---,0.00,VWS V14.01,2013-08-09 04:40:00,
2013-08-08 21:41:00,67.6,54.1,29.94,NNW,339,1.0,1.0,62,0.00,,---,0.00,VWS V14.01,2013-08-09 04:41:00,
2013-08-08 21:45:00,67.5,54.5,29.94,North,355,0.0,1.0,63,0.00,,---,0.00,VWS V14.01,2013-08-09 04:45:00,
2013-08-08 21:46:00,67.5,54.5,29.94,North,355,1.0,1.0,63,0.00,,---,0.00,VWS V14.01,2013-08-09 04:46:00,
2013-08-08 21:50:00,67.5,54.5,29.94,ESE,105,0.0,2.0,63,0.00,,---,0.00,VWS V14.01,2013-08-09 04:50:00,
2013-08-08 21:51:00,67.5,54.0,29.94,ESE,105,0.0,2.0,62,0.00,,---,0.00,VWS V14.01,2013-08-09 04:51:00,
2013-08-08 21:55:00,67.5,54.5,29.94,NNE,30,2.0,2.0,63,0.00,,---,0.00,VWS V14.01,2013-08-09 04:55:00,
2013-08-08 21:56:00,67.5,54.5,29.94,NNE,16,0.0,1.0,63,0.00,,---,0.00,VWS V14.01,2013-08-09 04:56:00,
2013-08-08 22:00:00,67.5,54.5,29.94,East,84,0.0,3.0,63,0.00,,---,0.00,VWS V14.01,2013-08-09 05:00:00,
2013-08-08 22:01:00,67.4,54.4,29.94,East,84,0.0,3.0,63,0.00,,---,0.00,VWS V14.01,2013-08-09 05:01:00,
2013-08-08 22:05:00,67.1,54.1,29.94,East,101,0.0,1.0,63,0.00,,---,0.00,VWS V14.01,2013-08-09 05:05:00,
2013-08-08 22:06:00,67.2,54.2,29.94,East,101,0.0,1.0,63,0.00,,---,0.00,VWS V14.01,2013-08-09 05:06:00,
2013-08-08 22:10:00,66.9,54.3,29.94,East,93,0.0,1.0,64,0.00,,---,0.00,VWS V14.01,2013-08-09 05:10:00,
2013-08-08 22:11:00,66.9,54.3,29.94,East,93,0.0,1.0,64,0.00,,---,0.00,VWS V14.01,2013-08-09 05:11:00,
2013-08-08 22:15:00,66.6,54.1,29.94,East,93,0.0,1.0,64,0.00,,---,0.00,VWS V14.01,2013-08-09 05:15:00,
2013-08-08 22:16:00,66.7,54.2,29.94,East,93,0.0,1.0,64,0.00,,---,0.00,VWS V14.01,2013-08-09 05:16:00,
2013-08-08 22:20:00,66.5,54.4,29.94,SSE,150,0.0,1.0,65,0.00,,---,0.00,VWS V14.01,2013-08-09 05:20:00,
2013-08-08 22:21:00,66.5,54.4,29.94,SSE,150,0.0,1.0,65,0.00,,---,0.00,VWS V14.01,2013-08-09 05:21:00,
2013-08-08 22:25:00,66.4,54.3,29.94,NE,41,1.0,3.0,65,0.00,,---,0.00,VWS V14.01,2013-08-09 05:25:00,
2013-08-08 22:26:00,66.4,54.3,29.94,NE,41,2.0,3.0,65,0.00,,---,0.00,VWS V14.01,2013-08-09 05:26:00,
2013-08-08 22:30:00,66.5,54.4,29.94,ENE,62,0.0,2.0,65,0.00,,---,0.00,VWS V14.01,2013-08-09 05:30:00,
2013-08-08 22:31:00,66.5,54.4,29.94,ENE,62,0.0,2.0,65,0.00,,---,0.00,VWS V14.01,2013-08-09 05:31:00,
2013-08-08 22:35:00,66.3,54.2,29.94,NE,48,0.0,1.0,65,0.00,,---,0.00,VWS V14.01,2013-08-09 05:35:00,
2013-08-08 22:36:00,66.3,54.2,29.94,NE,48,0.0,1.0,65,0.00,,---,0.00,VWS V14.01,2013-08-09 05:36:00,
2013-08-08 22:40:00,66.1,54.4,29.94,NNE,20,0.0,2.0,66,0.00,,---,0.00,VWS V14.01,2013-08-09 05:40:00,
2013-08-08 22:41:00,66.1,54.4,29.94,NNE,20,0.0,2.0,66,0.00,,---,0.00,VWS V14.01,2013-08-09 05:41:00,
2013-08-08 22:45:00,65.9,54.7,29.94,NNE,21,0.0,0.0,67,0.00,,---,0.00,VWS V14.01,2013-08-09 05:45:00,
2013-08-08 22:46:00,65.9,54.7,29.94,NNE,20,0.0,0.0,67,0.00,,---,0.00,VWS V14.01,2013-08-09 05:46:00,
2013-08-08 22:50:00,65.6,54.4,29.94,NNE,20,0.0,1.0,67,0.00,,---,0.00,VWS V14.01,2013-08-09 05:50:00,
2013-08-08 22:51:00,65.7,54.5,29.94,NNE,20,1.0,1.0,67,0.00,,---,0.00,VWS V14.01,2013-08-09 05:51:00,
2013-08-08 22:55:00,65.4,54.6,29.94,NNE,20,0.0,1.0,68,0.00,,---,0.00,VWS V14.01,2013-08-09 05:55:00,
2013-08-08 22:56:00,65.4,54.6,29.94,NNE,20,0.0,1.0,68,0.00,,---,0.00,VWS V14.01,2013-08-09 05:56:00,
2013-08-08 23:00:00,65.1,54.7,29.95,NE,36,0.0,2.0,69,0.00,,---,0.00,VWS V14.01,2013-08-09 06:00:00,
2013-08-08 23:01:00,65.2,54.8,29.95,NE,36,0.0,2.0,69,0.00,,---,0.00,VWS V14.01,2013-08-09 06:01:00,
2013-08-08 23:05:00,64.9,54.5,29.94,ESE,113,0.0,1.0,69,0.00,,---,0.00,VWS V14.01,2013-08-09 06:05:00,
2013-08-08 23:06:00,64.9,54.5,29.94,ESE,113,1.0,1.0,69,0.00,,---,0.00,VWS V14.01,2013-08-09 06:06:00,
2013-08-08 23:10:00,64.8,54.4,29.94,ESE,105,0.0,2.0,69,0.00,,---,0.00,VWS V14.01,2013-08-09 06:10:00,
2013-08-08 23:11:00,64.8,54.4,29.94,ESE,105,0.0,2.0,69,0.00,,---,0.00,VWS V14.01,2013-08-09 06:11:00,
2013-08-08 23:15:00,64.7,54.3,29.95,NNE,15,2.0,2.0,69,0.00,,---,0.00,VWS V14.01,2013-08-09 06:15:00,
2013-08-08 23:16:00,64.7,54.3,29.95,ESE,105,0.0,1.0,69,0.00,,---,0.00,VWS V14.01,2013-08-09 06:16:00,
2013-08-08 23:20:00,64.5,54.5,29.95,NE,53,0.0,2.0,70,0.00,,---,0.00,VWS V14.01,2013-08-09 06:20:00,
2013-08-08 23:21:00,64.6,54.6,29.95,NE,53,0.0,2.0,70,0.00,,---,0.00,VWS V14.01,2013-08-09 06:21:00,
2013-08-08 23:25:00,64.4,54.4,29.95,NNE,25,0.0,1.0,70,0.00,,---,0.00,VWS V14.01,2013-08-09 06:25:00,
2013-08-08 23:26:00,64.4,54.4,29.95,NNE,25,0.0,1.0,70,0.00,,---,0.00,VWS V14.01,2013-08-09 06:26:00,
2013-08-08 23:30:00,64.3,54.7,29.95,NNW,347,0.0,1.0,71,0.00,,---,0.00,VWS V14.01,2013-08-09 06:30:00,
2013-08-08 23:31:00,64.3,54.7,29.95,NNW,347,0.0,1.0,71,0.00,,---,0.00,VWS V14.01,2013-08-09 06:31:00,
2013-08-08 23:35:00,64.3,54.3,29.95,East,87,1.0,4.0,70,0.00,,---,0.00,VWS V14.01,2013-08-09 06:35:00,
2013-08-08 23:36:00,64.4,54.4,29.95,East,87,1.0,4.0,70,0.00,,---,0.00,VWS V14.01,2013-08-09 06:36:00,
2013-08-08 23:40:00,64.3,54.3,29.95,ESE,108,0.0,3.0,70,0.00,,---,0.00,VWS V14.01,2013-08-09 06:40:00,
2013-08-08 23:41:00,64.3,54.3,29.95,ESE,108,0.0,3.0,70,0.00,,---,0.00,VWS V14.01,2013-08-09 06:41:00,
2013-08-08 23:45:00,64.2,54.2,29.95,East,98,0.0,3.0,70,0.00,,---,0.00,VWS V14.01,2013-08-09 06:45:00,
2013-08-08 23:46:00,64.1,54.1,29.95,East,98,0.0,3.0,70,0.00,,---,0.00,VWS V14.01,2013-08-09 06:46:00,
2013-08-08 23:50:00,64.0,54.0,29.95,ENE,63,0.0,1.0,70,0.00,,---,0.00,VWS V14.01,2013-08-09 06:50:00,
2013-08-08 23:51:00,64.0,54.0,29.95,ENE,63,0.0,1.0,70,0.00,,---,0.00,VWS V14.01,2013-08-09 06:51:00,
2013-08-08 23:55:00,63.7,53.7,29.95,WNW,297,0.0,1.0,70,0.00,,---,0.00,VWS V14.01,2013-08-09 06:55:00,
2013-08-08 23:56:00,63.7,53.7,29.95,WNW,297,0.0,1.0,70,0.00,,---,0.00,VWS V14.01,2013-08-09 06:56:00,